Location: Saint Peter Port
(49.4500°N, 2.5330°W)
Time: 13:34:51
(UTC+00:00)

Cosmos 2242 Rocket - Visible Passes

Search period start: 23 January 2018 00:00
Search period end: 02 February 2018 00:00
Orbit: 619 x 651 km, 82.5° (Epoch: 23 January)

Date Brightness Start Highest point End Pass type
(mag) Time Alt. Az. Time Alt. Az. Time Alt. Az.
25 Jan 6.1 19:22:45 10° N 19:22:55 11° N 19:22:55 11° N visible
26 Jan 5.9 19:45:01 10° N 19:45:49 15° N 19:45:49 15° N visible
27 Jan 5.5 18:30:10 10° NNE 18:31:21 14° NNE 18:31:21 14° NNE visible
27 Jan 5.8 20:07:30 10° NNW 20:08:53 19° NNW 20:08:53 19° NNW visible
28 Jan 4.8 18:51:59 10° N 18:54:35 26° NE 18:54:35 26° NE visible
28 Jan 5.9 20:30:16 10° NNW 20:32:09 21° NW 20:32:09 21° NW visible
29 Jan 3.8 19:14:11 10° N 19:18:08 55° NE 19:18:08 55° NE visible
29 Jan 6.4 20:53:29 10° NW 20:55:44 17° WNW 20:55:44 17° WNW visible
30 Jan 5.2 17:59:36 10° NNE 18:02:26 16° ENE 18:04:39 12° E visible
30 Jan 3.8 19:36:37 10° NNW 19:41:12 71° W 19:42:18 50° SSW visible
31 Jan 4.5 18:21:16 10° N 18:25:14 28° ENE 18:29:10 10° SE visible
31 Jan 5.1 19:59:18 10° NNW 20:03:31 37° W 20:07:43 10° SSW visible
01 Feb 6.6 07:01:25 10° ESE 07:03:55 15° E 07:06:28 10° NE visible
01 Feb 3.8 18:43:22 10° N 18:47:52 51° ENE 18:52:19 10° SSE visible
01 Feb 6.2 20:22:22 10° NW 20:25:43 20° W 20:29:02 10° SW visible
